星链-4769 (STARLINK-4769 )

导读

STARLINK-4769是美国SpaceX星链星座的成员,于2022年9月19日发射升空,属于星链低轨互联网卫星组网批次。它运行在近地轨道,主要承担全球互联网覆盖服务任务,为偏远地区、海上空中等场景提供宽带接入,是星链大规模组网进程中推进全球卫星互联网部署的一颗功能性卫星,延续了星链星座低轨通信的技术路径。

Basic Information
目录编号:
53843
目录名称:
STARLINK-4769
国际标识:
2022-114AB
轨道中心:
EARTH
卫星名称:
星链-4769
卫星全名:
星链-4769 (STARLINK-4769 )
卫星状态:
在轨 (已飞行1454 天)
发射日期:
2022-09-19 UTC
国别 :
美国 (US)
星等 :
--
This satellite is enrolled in the Space Conjunction Data Service (SCDS) and the current flight risk assessment level is: No High Risk
Orbit Information
数据来源 国际轨道数据
星历时间: 2026-09-12T13:50:40+0800
8小时前
查看轨道信息
半长轴: 6917.901km
偏心率: 0.0001408
轨道倾角: 53.160°
近地点辐角 87.785°
升交点赤经 176.124°
平近点角 272.330°
近地点: 538.789km
远地点: 540.739km
周期: 95.438分钟
每日圈数: 15.088333
Detailed Information
固有亮度:
5
最大亮度:
2.5
卫星平台:
Starlink v1.5
覆盖范围:
全球
运营商:
太空探索技术公司
运营商所在国:
美国
制造商(研发单位):
太空探索技术公司
制造商所在国:
美国
使用方式:
暂无
Satellite Introduction
星链(Starlink)计划是由太空探索技术公司(SpaceX)提出的一个巨型低轨卫星互联网星座项目,计划在2019年至2024年间在太空搭建由约1.2万颗卫星组成的“星链”网络,其中1584颗将部署在地球上空550千米处的近地轨道,并从2020年开始工作。该卫星仍在工作。
2D Orbit Map
3D Orbit Map
Orbit Altitude Analysis Chart
Orbit Inclination Analysis Chart
Orbit Comprehensive Analysis Chart
View Comprehensive Chart
Conjunction Data List
Event ID Objects TCA Miss Dist (km) Collision Risk Probability Collision Risk Index (CRI) Action
CDM_260913-213701-418005-384322
GB 3 (14180)
2026-09-13T
21:37:15+0000
0.866 km
远距离
4.039564E-5 中风险 0.67
CDM_260913-014205-384305-553423
2026-09-13T
01:42:24+0000
1.466 km
极远距离
7.218282E-6 低风险 0.52
Miss Distance Evolution Trend with All Objects
Collision Probability Evolution Trend with All Objects